This is the latest recevied weather packets stored in our database for station/object KM4NDI. If no packets are shown the sender has not sent any weather packets the latest 10 day(s).
| Time | Temp. | Humidity | Pressure | Rain* | Wind** | Luminosity | Snow |
|---|---|---|---|---|---|---|---|
| 1777202727 | 17.22° C | 99% | 1014 hPa | 0 mm | - | - | - |
| 1777202131 | 17.22° C | 99% | 1013.6 hPa | 0 mm | - | - | - |
| 1777201516 | 17.22° C | 99% | 1013.6 hPa | 0 mm | - | - | - |
| 1777198525 | 17.78° C | 99% | 1013.1 hPa | 0 mm | - | - | - |
| 1777192527 | 18.33° C | 99% | 1012.6 hPa | 0 mm | - | - | - |
| 1777191930 | 18.33° C | 99% | 1012.5 hPa | 0 mm | - | - | - |
| 1777190718 | 17.78° C | 99% | 1012.4 hPa | 0 mm | - | - | - |
| 1777190141 | 17.78° C | 99% | 1012.4 hPa | 0 mm | - | - | - |
| 1777186522 | 18.33° C | 99% | 1011.9 hPa | 0 mm | - | - | - |
| 1777185322 | 18.89° C | 99% | 1012 hPa | 0 mm | - | - | - |
| 1777183520 | 18.89° C | 99% | 1012.4 hPa | 0 mm | - | - | - |
| 1777181729 | 19.44° C | 99% | 1012.9 hPa | 0.25 mm | - | - | - |
| 1777181132 | 18.89° C | 99% | 1012.8 hPa | 0.25 mm | - | - | - |
| 1777180557 | 19.44° C | 99% | 1012.3 hPa | 0.25 mm | - | - | - |
| 1777178130 | 20.56° C | 99% | 1012.2 hPa | 0 mm | - | - | - |
| 1777171516 | 21.11° C | 99% | 1012.1 hPa | 1.27 mm | - | - | - |
| 1777168525 | 21.11° C | 99% | 1011.3 hPa | 0 mm | - | - | - |
| 1777167332 | 21.11° C | 99% | 1011.2 hPa | 0 mm | - | - | - |
| 1777164926 | 21.67° C | 99% | 1010.9 hPa | 0 mm | - | - | - |
| 1777163118 | 22.22° C | 99% | 1010.7 hPa | 0 mm | - | - | - |
* Rain latest hour (hover to see other rain measurements)
** Current wind speed in m/s (hover to see current wind gust speed)